{"data":{"norad_id":29045,"epoch":"2026-09-19T20:41:38.647968Z","epoch_age_seconds":69412,"freshness":"FRESH","line1":"1 29045U 06010A   26262.86225287 -.00000332  00000+0  00000+0 0  9992","line2":"2 29045   1.3457  82.9448 0001567  51.3789 306.9204  1.00271100 74714","mean_motion":1.002711,"eccentricity":0.0001567,"inclination_deg":1.3457,"raan_deg":82.9448,"arg_perigee_deg":51.3789,"mean_anomaly_deg":306.9204,"bstar":0,"rev_number":7471,"period_min":1436.1067146965,"perigee_km":35780.17974906,"apogee_km":35793.39423624,"semimajor_km":42164.92399265,"source":"CELESTRAK","updated_at":"2026-09-20T09:00:35.126616Z"}}